ヒル彗星

195P/Hill (2009)

English version
Home page
Total 6,336 html files since Dec. 4, 1995
Updated on April 4, 2008

---------------------------------------------------------------------

・ プロフィール

符号 195P/2006 W4
発見日 2006年11月22日
発見光度 19.3等
発見者 R. E. Hill (Catalina Sky Survey)

・ 軌道要素

                    Epoch = 2009 Jan.  9.0 TT
     T = 2009 Jan. 21.0916 TT         Peri. = 249.6184
     e = 0.314866                     Node  = 243.2496  2000.0
     q = 4.438583 AU                  Incl. =  36.3618
       a =  6.478413 AU    n = 0.0597725    P =  16.49 years

・ 光度変化

        m1 = 8.5 + 5 logΔ + 10.0 log r

---------------------------------------------------------------------

軌道要素はB. G. Marsdenの計算で、IAUC 8902に掲載されたものです。
光度グラフはComet for Windowsで作成したものです。

---------------------------------------------------------------------

Copyright(C) 1995-2008 Seiichi Yoshida (comet@aerith.net). All rights reserved.